Time,TemperatureF,DewpointF,PressureIn,WindDirection,WindDirectionDegrees,WindSpeedMPH,WindSpeedGustMPH,Humidity,HourlyPrecipIn,Conditions,Clouds,dailyrainin,SoftwareType,DateUTC
2013-11-12 00:01:00,42.7,33.6,29.84,SSW,203,1.2,1.9,70,0.00,BKN,,0.00,WeatherDisplay:10.37,2013-11-12 05:01:00,
2013-11-12 00:06:00,42.9,33.8,29.84,SSW,195,1.2,0.0,70,0.00,OVC,,0.00,WeatherDisplay:10.37,2013-11-12 05:06:00,
2013-11-12 00:11:00,42.7,33.6,29.84,SW,229,3.9,3.9,70,0.00,OVC,,0.00,WeatherDisplay:10.37,2013-11-12 05:11:00,
2013-11-12 00:16:00,42.9,34.1,29.83,South,174,5.8,5.8,71,0.00,OVC,,0.00,WeatherDisplay:10.37,2013-11-12 05:16:00,
2013-11-12 00:21:00,42.7,33.9,29.83,SSW,195,8.1,8.1,71,0.00,OVC,,0.00,WeatherDisplay:10.37,2013-11-12 05:21:00,
2013-11-12 00:26:00,42.7,34.3,29.83,SSE,165,2.3,2.3,72,0.00,OVC,,0.00,WeatherDisplay:10.37,2013-11-12 05:26:00,
2013-11-12 00:31:00,42.6,34.2,29.83,South,188,1.3,0.0,72,0.00,OVC,,0.00,WeatherDisplay:10.37,2013-11-12 05:31:00,
2013-11-12 00:36:00,42.6,34.2,29.83,South,175,2.6,2.6,72,0.00,OVC,,0.00,WeatherDisplay:10.37,2013-11-12 05:36:00,
2013-11-12 00:41:00,42.5,34.1,29.82,South,182,5.8,5.8,72,0.00,OVC,,0.00,WeatherDisplay:10.37,2013-11-12 05:41:00,
2013-11-12 00:46:00,42.5,34.1,29.83,ESE,120,3.5,3.5,72,0.00,OVC,,0.00,WeatherDisplay:10.37,2013-11-12 05:46:00,
2013-11-12 00:51:00,42.5,34.1,29.83,SSE,147,9.2,9.2,72,0.00,OVC,,0.00,WeatherDisplay:10.37,2013-11-12 05:51:00,
2013-11-12 00:56:00,42.5,34.1,29.83,SSW,202,8.1,8.1,72,0.00,OVC,,0.00,WeatherDisplay:10.37,2013-11-12 05:56:00,
2013-11-12 01:01:00,42.5,34.5,29.83,SSE,151,8.1,8.1,73,0.00,OVC,,0.00,WeatherDisplay:10.37,2013-11-12 06:01:00,
2013-11-12 01:06:00,42.6,34.2,29.82,SSE,155,3.5,3.5,72,0.00,OVC,,0.00,WeatherDisplay:10.37,2013-11-12 06:06:00,
2013-11-12 01:11:00,42.6,34.2,29.82,SSW,202,9.2,9.2,72,0.00,OVC,,0.00,WeatherDisplay:10.37,2013-11-12 06:11:00,
2013-11-12 01:17:00,42.6,33.9,29.83,SSE,161,6.9,6.9,71,0.00,OVC,,0.00,WeatherDisplay:10.37,2013-11-12 06:17:00,
2013-11-12 01:22:00,42.7,34.3,29.82,SSE,168,10.4,10.4,72,0.00,OVC,,0.00,WeatherDisplay:10.37,2013-11-12 06:22:00,
2013-11-12 01:27:00,42.7,33.9,29.82,South,181,1.2,1.2,71,0.00,OVC,,0.00,WeatherDisplay:10.37,2013-11-12 06:27:00,
2013-11-12 01:32:00,42.7,33.9,29.83,South,178,2.3,2.3,71,0.00,OVC,,0.00,WeatherDisplay:10.37,2013-11-12 06:32:00,
2013-11-12 01:37:00,42.7,34.3,29.83,South,176,2.3,2.3,72,0.00,OVC,,0.00,WeatherDisplay:10.37,2013-11-12 06:37:00,
2013-11-12 01:42:00,42.9,34.5,29.83,ESE,109,6.9,6.9,72,0.00,OVC,,0.00,WeatherDisplay:10.37,2013-11-12 06:42:00,
2013-11-12 01:47:00,42.9,34.1,29.83,SW,217,8.1,8.1,71,0.00,OVC,,0.00,WeatherDisplay:10.37,2013-11-12 06:47:00,
2013-11-12 01:52:00,43.0,34.2,29.83,SSE,155,3.5,3.5,71,0.00,OVC,,0.00,WeatherDisplay:10.37,2013-11-12 06:52:00,
2013-11-12 01:57:00,43.0,34.2,29.83,SW,220,1.2,1.2,71,0.00,OVC,,0.00,WeatherDisplay:10.37,2013-11-12 06:57:00,
2013-11-12 02:02:00,43.0,34.2,29.83,SE,133,6.9,6.9,71,0.00,OVC,,0.00,WeatherDisplay:10.37,2013-11-12 07:02:00,
2013-11-12 02:07:00,43.0,34.2,29.82,South,182,2.3,2.3,71,0.00,OVC,,0.00,WeatherDisplay:10.37,2013-11-12 07:07:00,
2013-11-12 02:12:00,43.2,34.4,29.82,East,83,3.5,3.5,71,0.00,OVC,,0.00,WeatherDisplay:10.37,2013-11-12 07:12:00,
2013-11-12 02:17:00,43.2,34.1,29.82,SW,233,8.1,8.1,70,0.00,OVC,,0.00,WeatherDisplay:10.37,2013-11-12 07:17:00,
2013-11-12 02:22:00,43.3,34.2,29.82,South,181,9.2,9.2,70,0.00,OVC,,0.00,WeatherDisplay:10.37,2013-11-12 07:22:00,
2013-11-12 02:27:00,43.5,34.4,29.82,SSE,158,3.5,3.5,70,0.00,OVC,,0.00,WeatherDisplay:10.37,2013-11-12 07:27:00,
2013-11-12 02:32:00,43.5,34.4,29.82,South,189,9.2,9.2,70,0.00,OVC,,0.00,WeatherDisplay:10.37,2013-11-12 07:32:00,
2013-11-12 02:37:00,43.6,34.5,29.82,South,174,8.1,8.1,70,0.00,OVC,,0.00,WeatherDisplay:10.37,2013-11-12 07:37:00,
2013-11-12 02:42:00,43.6,34.5,29.82,SE,144,1.2,0.0,70,0.00,OVC,,0.00,WeatherDisplay:10.37,2013-11-12 07:42:00,
2013-11-12 02:47:00,43.5,34.4,29.82,SSW,213,6.9,6.9,70,0.00,OVC,,0.00,WeatherDisplay:10.37,2013-11-12 07:47:00,
2013-11-12 02:52:00,43.5,34.4,29.82,SW,227,2.3,2.3,70,0.00,OVC,,0.00,WeatherDisplay:10.37,2013-11-12 07:52:00,
2013-11-12 02:57:00,43.5,34.7,29.82,South,186,5.8,0.0,71,0.00,OVC,,0.00,WeatherDisplay:10.37,2013-11-12 07:57:00,
2013-11-12 03:02:00,43.3,34.5,29.82,SSW,196,8.1,8.1,71,0.00,OVC,,0.00,WeatherDisplay:10.37,2013-11-12 08:02:00,
2013-11-12 03:07:00,43.3,34.9,29.82,SSW,198,2.3,2.3,72,0.00,OVC,,0.00,WeatherDisplay:10.37,2013-11-12 08:07:00,
2013-11-12 03:12:00,43.3,34.9,29.82,SW,223,1.2,1.5,72,0.00,OVC,,0.00,WeatherDisplay:10.37,2013-11-12 08:12:00,
2013-11-12 03:17:00,43.2,34.8,29.82,South,189,6.9,6.9,72,0.00,OVC,,0.00,WeatherDisplay:10.37,2013-11-12 08:17:00,
2013-11-12 03:22:00,43.2,34.8,29.82,ESE,112,17.3,17.3,72,0.00,OVC,,0.00,WeatherDisplay:10.37,2013-11-12 08:22:00,
2013-11-12 03:27:00,43.3,34.5,29.82,SSW,192,10.4,10.4,71,0.00,OVC,,0.00,WeatherDisplay:10.37,2013-11-12 08:27:00,
2013-11-12 03:32:00,43.3,34.9,29.83,SW,232,3.9,3.9,72,0.00,OVC,,0.00,WeatherDisplay:10.37,2013-11-12 08:32:00,
2013-11-12 03:37:00,43.3,34.9,29.83,SSE,168,8.1,8.1,72,0.00,OVC,,0.00,WeatherDisplay:10.37,2013-11-12 08:37:00,
2013-11-12 03:42:00,43.3,34.9,29.83,South,179,3.5,3.5,72,0.00,OVC,,0.00,WeatherDisplay:10.37,2013-11-12 08:42:00,
2013-11-12 03:47:00,43.3,34.9,29.83,SSE,168,6.9,6.9,72,0.00,OVC,,0.00,WeatherDisplay:10.37,2013-11-12 08:47:00,
2013-11-12 03:52:00,43.3,34.9,29.83,South,176,6.9,6.9,72,0.00,OVC,,0.00,WeatherDisplay:10.37,2013-11-12 08:52:00,
2013-11-12 03:57:00,43.3,35.2,29.83,South,174,8.1,8.1,73,0.00,OVC,,0.00,WeatherDisplay:10.37,2013-11-12 08:57:00,
2013-11-12 04:02:00,43.2,35.5,29.83,WNW,289,8.1,8.1,74,0.00,OVC,,0.00,WeatherDisplay:10.37,2013-11-12 09:02:00,
2013-11-12 04:07:00,43.2,35.1,29.83,SSE,151,3.5,3.5,73,0.00,OVC,,0.00,WeatherDisplay:10.37,2013-11-12 09:07:00,
2013-11-12 04:12:00,43.2,35.5,29.84,SSE,147,2.3,2.3,74,0.00,OVC,,0.00,WeatherDisplay:10.37,2013-11-12 09:12:00,
2013-11-12 04:17:00,43.2,35.1,29.84,South,171,1.2,1.9,73,0.00,OVC,,0.00,WeatherDisplay:10.37,2013-11-12 09:17:00,
2013-11-12 04:22:00,43.2,35.1,29.85,NE,48,8.1,8.1,73,0.00,OVC,,0.00,WeatherDisplay:10.37,2013-11-12 09:22:00,
2013-11-12 04:27:00,42.6,34.2,29.85,NNW,346,11.5,11.5,72,0.00,OVC,,0.00,WeatherDisplay:10.37,2013-11-12 09:27:00,
2013-11-12 04:32:00,41.7,33.7,29.86,NE,40,8.1,8.1,73,0.00,OVC,,0.00,WeatherDisplay:10.37,2013-11-12 09:32:00,
2013-11-12 04:37:00,41.0,33.3,29.86,North,0,12.7,12.7,74,0.00,OVC,,0.00,WeatherDisplay:10.37,2013-11-12 09:37:00,
2013-11-12 04:42:00,40.5,33.2,29.87,NNE,27,13.8,13.8,75,0.00,OVC,,0.00,WeatherDisplay:10.37,2013-11-12 09:42:00,
2013-11-12 04:47:00,39.9,32.3,29.88,NNE,17,10.4,10.4,74,0.00,OVC,,0.00,WeatherDisplay:10.37,2013-11-12 09:47:00,
2013-11-12 04:52:00,39.2,31.9,29.88,North,357,10.4,10.4,75,0.00,OVC,,0.00,WeatherDisplay:10.37,2013-11-12 09:52:00,
2013-11-12 04:57:00,38.2,31.9,29.89,NE,41,10.4,10.4,78,0.00,OVC,,0.00,WeatherDisplay:10.37,2013-11-12 09:57:00,
2013-11-12 05:02:00,37.5,31.9,29.89,East,88,8.1,8.1,80,0.00,OVC,,0.00,WeatherDisplay:10.37,2013-11-12 10:02:00,
2013-11-12 05:07:00,37.2,31.9,29.89,ENE,58,2.6,2.6,81,0.00,OVC,,0.00,WeatherDisplay:10.37,2013-11-12 10:07:00,
2013-11-12 05:12:00,37.0,31.7,29.89,North,353,3.5,3.5,81,0.00,OVC,,0.00,WeatherDisplay:10.37,2013-11-12 10:12:00,
2013-11-12 05:17:00,36.7,31.1,29.90,NW,312,13.0,13.0,80,0.00,OVC,,0.00,WeatherDisplay:10.37,2013-11-12 10:17:00,
2013-11-12 05:22:00,36.4,30.5,29.90,NW,309,9.2,9.2,79,0.00,OVC,,0.00,WeatherDisplay:10.37,2013-11-12 10:22:00,
2013-11-12 05:27:00,36.3,30.4,29.90,ENE,62,3.9,3.9,79,0.00,OVC,,0.00,WeatherDisplay:10.37,2013-11-12 10:27:00,
2013-11-12 05:32:00,36.0,30.1,29.91,NW,319,13.8,13.8,79,0.00,OVC,,0.00,WeatherDisplay:10.37,2013-11-12 10:32:00,
2013-11-12 05:37:00,35.9,30.0,29.91,WSW,240,8.1,8.1,79,0.00,OVC,,0.00,WeatherDisplay:10.37,2013-11-12 10:37:00,
2013-11-12 05:42:00,35.9,30.0,29.91,North,359,8.1,8.1,79,0.00,OVC,,0.00,WeatherDisplay:10.37,2013-11-12 10:42:00,
2013-11-12 05:48:00,35.7,30.1,29.91,NE,42,3.5,3.5,80,0.00,OVC,,0.00,WeatherDisplay:10.37,2013-11-12 10:48:00,
2013-11-12 05:53:00,35.6,30.3,29.92,North,0,8.1,8.1,81,0.00,OVC,,0.00,WeatherDisplay:10.37,2013-11-12 10:53:00,
2013-11-12 05:58:00,35.4,31.3,29.92,NNE,27,6.9,6.9,85,0.00,OVC,,0.00,WeatherDisplay:10.37,2013-11-12 10:58:00,
2013-11-12 06:03:00,35.3,31.2,29.92,NE,42,8.1,8.1,85,0.00,OVC,,0.00,WeatherDisplay:10.37,2013-11-12 11:03:00,
2013-11-12 06:08:00,35.2,29.3,29.92,NW,309,13.8,13.8,79,0.00,OVC,,0.00,WeatherDisplay:10.37,2013-11-12 11:08:00,
2013-11-12 06:13:00,35.2,27.7,29.92,NNE,16,8.1,8.1,74,0.00,OVC,,0.00,WeatherDisplay:10.37,2013-11-12 11:13:00,
2013-11-12 06:18:00,35.2,26.4,29.92,North,0,2.3,2.3,70,0.00,OVC,,0.00,WeatherDisplay:10.37,2013-11-12 11:18:00,
2013-11-12 06:23:00,35.2,26.0,29.92,NW,313,3.5,3.5,69,0.00,OVC,,0.00,WeatherDisplay:10.37,2013-11-12 11:23:00,
2013-11-12 06:28:00,35.2,26.0,29.92,NNW,332,6.9,6.9,69,0.00,OVC,,0.00,WeatherDisplay:10.37,2013-11-12 11:28:00,
2013-11-12 06:33:00,35.2,25.3,29.93,North,350,6.9,6.9,67,0.00,OVC,,0.00,WeatherDisplay:10.37,2013-11-12 11:33:00,
2013-11-12 06:38:00,35.2,25.3,29.93,NNE,17,0.0,0.0,67,0.00,OVC,,0.00,WeatherDisplay:10.37,2013-11-12 11:38:00,
2013-11-12 06:43:00,35.0,25.1,29.94,NNE,28,8.1,8.1,67,0.00,OVC,,0.00,WeatherDisplay:10.37,2013-11-12 11:43:00,
2013-11-12 06:48:00,35.0,25.5,29.94,NNE,17,0.0,0.0,68,0.00,OVC,,0.00,WeatherDisplay:10.37,2013-11-12 11:48:00,
2013-11-12 06:53:00,34.9,25.4,29.95,SE,126,5.8,5.8,68,0.00,OVC,,0.00,WeatherDisplay:10.37,2013-11-12 11:53:00,
2013-11-12 06:58:00,34.7,25.6,29.95,North,4,6.9,6.9,69,0.00,OVC,,0.00,WeatherDisplay:10.37,2013-11-12 11:58:00,
2013-11-12 07:03:00,34.4,25.6,29.95,NNW,333,8.1,8.1,70,0.00,OVC,,0.00,WeatherDisplay:10.37,2013-11-12 12:03:00,
2013-11-12 07:08:00,34.2,25.4,29.95,NNE,14,12.7,12.7,70,0.00,OVC,,0.00,WeatherDisplay:10.37,2013-11-12 12:08:00,
2013-11-12 07:13:00,34.0,25.2,29.95,NW,316,3.5,3.5,70,0.00,OVC,,0.00,WeatherDisplay:10.37,2013-11-12 12:13:00,
2013-11-12 07:18:00,33.9,24.8,29.95,North,357,9.2,9.2,69,0.00,OVC,,0.00,WeatherDisplay:10.37,2013-11-12 12:18:00,
2013-11-12 07:23:00,33.6,24.5,29.96,NW,308,3.5,3.5,69,0.00,OVC,,0.00,WeatherDisplay:10.37,2013-11-12 12:23:00,
2013-11-12 07:28:00,33.4,24.3,29.96,West,260,9.2,9.2,69,0.00,OVC,,0.00,WeatherDisplay:10.37,2013-11-12 12:28:00,
2013-11-12 07:33:00,33.4,24.3,29.97,NNE,25,8.1,8.1,69,0.00,OVC,,0.00,WeatherDisplay:10.37,2013-11-12 12:33:00,
2013-11-12 07:38:00,33.3,24.2,29.97,NNW,346,10.4,10.4,69,0.00,OVC,,0.00,WeatherDisplay:10.37,2013-11-12 12:38:00,
2013-11-12 07:43:00,33.1,24.0,29.97,North,0,1.2,2.2,69,0.00,OVC,,0.00,WeatherDisplay:10.37,2013-11-12 12:43:00,
2013-11-12 07:48:00,33.0,23.9,29.97,NNW,344,8.1,8.1,69,0.00,OVC,,0.00,WeatherDisplay:10.37,2013-11-12 12:48:00,
2013-11-12 07:53:00,33.0,23.9,29.97,North,349,10.4,10.4,69,0.00,OVC,,0.00,WeatherDisplay:10.37,2013-11-12 12:53:00,
2013-11-12 07:58:00,32.8,23.4,29.97,SW,223,9.2,9.2,68,0.00,OVC,,0.00,WeatherDisplay:10.37,2013-11-12 12:58:00,
2013-11-12 08:03:00,32.7,23.3,29.97,North,0,9.2,9.2,68,0.00,OVC,,0.00,WeatherDisplay:10.37,2013-11-12 13:03:00,
2013-11-12 08:08:00,32.5,22.8,29.98,NNE,28,9.1,9.1,67,0.00,OVC,,0.00,WeatherDisplay:10.37,2013-11-12 13:08:00,
2013-11-12 08:13:00,32.5,22.4,29.97,North,8,6.9,6.9,66,0.00,OVC,,0.00,WeatherDisplay:10.37,2013-11-12 13:13:00,
2013-11-12 08:18:00,32.5,22.4,29.98,North,0,2.3,2.3,66,0.00,OVC,,0.00,WeatherDisplay:10.37,2013-11-12 13:18:00,
2013-11-12 08:23:00,32.4,22.3,29.98,NNW,329,8.1,8.1,66,0.00,OVC,,0.00,WeatherDisplay:10.37,2013-11-12 13:23:00,
2013-11-12 08:28:00,32.2,21.7,29.98,NNE,21,10.4,10.4,65,0.00,OVC,,0.00,WeatherDisplay:10.37,2013-11-12 13:28:00,
2013-11-12 08:33:00,32.2,21.7,29.99,NNW,337,13.8,13.8,65,0.00,OVC,,0.00,WeatherDisplay:10.37,2013-11-12 13:33:00,
2013-11-12 08:38:00,31.9,21.5,29.99,NW,309,8.1,8.1,65,0.00,OVC,,0.00,WeatherDisplay:10.37,2013-11-12 13:38:00,
2013-11-12 08:43:00,31.8,21.0,29.99,North,3,8.1,8.1,64,0.00,OVC,,0.00,WeatherDisplay:10.37,2013-11-12 13:43:00,
2013-11-12 08:48:00,31.5,20.7,29.99,North,0,13.8,13.8,64,0.00,OVC,,0.00,WeatherDisplay:10.37,2013-11-12 13:48:00,
2013-11-12 08:53:00,31.3,20.5,29.99,WSW,248,10.4,10.4,64,0.00,OVC,,0.00,WeatherDisplay:10.37,2013-11-12 13:53:00,
2013-11-12 08:58:00,31.2,20.8,30.00,NE,44,11.5,11.5,65,0.00,OVC,,0.00,WeatherDisplay:10.37,2013-11-12 13:58:00,
2013-11-12 09:03:00,30.9,20.5,30.00,NNE,28,6.9,6.9,65,0.00,OVC,,0.00,WeatherDisplay:10.37,2013-11-12 14:03:00,
2013-11-12 09:08:00,30.8,20.8,30.00,North,6,5.8,6.1,66,0.00,OVC,,0.00,WeatherDisplay:10.37,2013-11-12 14:08:00,
2013-11-12 09:13:00,30.5,20.1,30.01,North,8,3.9,3.9,65,0.00,OVC,,0.00,WeatherDisplay:10.37,2013-11-12 14:13:00,
2013-11-12 09:18:00,30.3,19.9,30.01,NNE,27,3.5,3.6,65,0.00,OVC,,0.00,WeatherDisplay:10.37,2013-11-12 14:18:00,
2013-11-12 09:23:00,30.3,19.6,30.01,SSW,193,8.1,8.1,64,0.00,OVC,,0.00,WeatherDisplay:10.37,2013-11-12 14:23:00,
2013-11-12 09:28:00,30.2,19.8,30.01,North,0,9.2,9.2,65,0.00,OVC,,0.00,WeatherDisplay:10.37,2013-11-12 14:28:00,
2013-11-12 09:33:00,30.2,19.8,30.01,SE,134,2.3,2.3,65,0.00,OVC,,0.00,WeatherDisplay:10.37,2013-11-12 14:33:00,
2013-11-12 09:38:00,30.2,19.8,30.01,NE,34,3.5,3.5,65,0.00,OVC,,0.00,WeatherDisplay:10.37,2013-11-12 14:38:00,
2013-11-12 09:44:00,30.0,19.7,30.02,North,354,8.1,8.1,65,0.00,OVC,,0.00,WeatherDisplay:10.37,2013-11-12 14:44:00,
2013-11-12 09:49:00,29.9,19.9,30.02,WSW,258,5.8,5.8,66,0.00,OVC,,0.00,WeatherDisplay:10.37,2013-11-12 14:49:00,
2013-11-12 09:54:00,29.9,19.9,30.02,NW,309,7.8,7.8,66,0.00,OVC,,0.00,WeatherDisplay:10.37,2013-11-12 14:54:00,
2013-11-12 09:59:00,29.7,19.7,30.02,North,352,9.2,9.2,66,0.00,OVC,,0.00,WeatherDisplay:10.37,2013-11-12 14:59:00,
2013-11-12 10:04:00,29.6,19.6,30.02,North,353,9.2,9.2,66,0.00,OVC,,0.00,WeatherDisplay:10.37,2013-11-12 15:04:00,
2013-11-12 10:09:00,29.7,19.7,30.02,NNW,332,8.1,8.1,66,0.00,OVC,,0.00,WeatherDisplay:10.37,2013-11-12 15:09:00,
2013-11-12 10:14:00,29.6,19.3,30.02,NE,41,11.5,11.5,65,0.00,OVC,,0.00,WeatherDisplay:10.37,2013-11-12 15:14:00,
2013-11-12 10:19:00,29.6,19.3,30.02,NE,37,10.4,10.4,65,0.00,OVC,,0.00,WeatherDisplay:10.37,2013-11-12 15:19:00,
2013-11-12 10:24:00,29.6,19.6,30.02,NW,312,8.1,8.1,66,0.00,OVC,,0.00,WeatherDisplay:10.37,2013-11-12 15:24:00,
2013-11-12 10:29:00,29.6,19.6,30.02,NNE,18,6.9,6.9,66,0.00,OVC,,0.00,WeatherDisplay:10.37,2013-11-12 15:29:00,
2013-11-12 10:34:00,29.4,19.4,30.02,North,357,2.3,2.3,66,0.00,OVC,,0.00,WeatherDisplay:10.37,2013-11-12 15:34:00,
2013-11-12 10:39:00,29.4,19.4,30.02,WNW,302,8.1,8.1,66,0.00,OVC,,0.00,WeatherDisplay:10.37,2013-11-12 15:39:00,
2013-11-12 10:44:00,29.4,19.8,30.02,NNW,330,2.3,2.3,67,0.00,OVC,,0.00,WeatherDisplay:10.37,2013-11-12 15:44:00,
2013-11-12 10:49:00,29.6,20.0,30.02,North,359,10.4,10.4,67,0.00,OVC,,0.00,WeatherDisplay:10.37,2013-11-12 15:49:00,
2013-11-12 10:54:00,29.4,19.8,30.02,North,356,8.1,8.1,67,0.00,OVC,,0.00,WeatherDisplay:10.37,2013-11-12 15:54:00,
2013-11-12 10:59:00,29.6,20.0,30.02,NE,44,6.9,6.9,67,0.00,OVC,,0.00,WeatherDisplay:10.37,2013-11-12 15:59:00,
2013-11-12 11:04:00,29.6,20.0,30.01,ENE,68,3.5,3.5,67,0.00,SCT,,0.00,WeatherDisplay:10.37,2013-11-12 16:04:00,
2013-11-12 11:09:00,29.6,20.3,30.02,North,357,6.9,6.9,68,0.00,SCT,,0.00,WeatherDisplay:10.37,2013-11-12 16:09:00,
2013-11-12 11:14:00,29.6,20.7,30.02,North,356,3.5,3.5,69,0.00,SCT,,0.00,WeatherDisplay:10.37,2013-11-12 16:14:00,
2013-11-12 11:19:00,29.7,20.8,30.01,SE,128,3.5,3.5,69,0.00,SCT,,0.00,WeatherDisplay:10.37,2013-11-12 16:19:00,
2013-11-12 11:24:00,29.9,21.0,30.01,North,11,5.8,5.8,69,0.00,SCT,,0.00,WeatherDisplay:10.37,2013-11-12 16:24:00,
2013-11-12 11:29:00,29.9,20.3,30.01,South,171,3.5,3.5,67,0.00,SCT,,0.00,WeatherDisplay:10.37,2013-11-12 16:29:00,
2013-11-12 11:34:00,30.0,20.4,30.01,WSW,247,10.4,10.4,67,0.00,SCT,,0.00,WeatherDisplay:10.37,2013-11-12 16:34:00,
2013-11-12 11:39:00,30.2,20.2,30.01,North,357,12.7,12.7,66,0.00,SCT,,0.00,WeatherDisplay:10.37,2013-11-12 16:39:00,
2013-11-12 11:44:00,30.3,20.3,30.01,North,8,5.8,5.8,66,0.00,SCT,,0.00,WeatherDisplay:10.37,2013-11-12 16:44:00,
2013-11-12 11:49:00,30.5,20.8,30.01,SE,124,3.5,3.5,67,0.00,SCT,,0.00,WeatherDisplay:10.37,2013-11-12 16:49:00,
2013-11-12 11:54:00,30.5,19.8,30.00,ENE,76,3.5,3.5,64,0.00,SCT,,0.00,WeatherDisplay:10.37,2013-11-12 16:54:00,
2013-11-12 11:59:00,30.6,20.6,30.00,South,178,3.5,3.5,66,0.00,SCT,,0.00,WeatherDisplay:10.37,2013-11-12 16:59:00,
2013-11-12 12:04:00,30.6,19.9,30.00,North,359,10.4,10.4,64,0.00,CLR,,0.00,WeatherDisplay:10.37,2013-11-12 17:04:00,
2013-11-12 12:09:00,30.5,19.4,30.00,WSW,241,6.9,6.9,63,0.00,CLR,,0.00,WeatherDisplay:10.37,2013-11-12 17:09:00,
2013-11-12 12:14:00,30.6,20.2,30.00,North,0,3.5,3.5,65,0.00,CLR,,0.00,WeatherDisplay:10.37,2013-11-12 17:14:00,
2013-11-12 12:19:00,30.5,19.4,30.00,North,0,6.9,6.9,63,0.00,CLR,,0.00,WeatherDisplay:10.37,2013-11-12 17:19:00,
2013-11-12 12:24:00,30.3,19.2,30.00,NW,306,6.9,6.9,63,0.00,CLR,,0.00,WeatherDisplay:10.37,2013-11-12 17:24:00,
2013-11-12 12:29:00,30.5,19.8,30.00,SSW,199,6.9,6.9,64,0.00,CLR,,0.00,WeatherDisplay:10.37,2013-11-12 17:29:00,
2013-11-12 12:34:00,30.5,19.0,30.00,NNE,24,8.1,9.4,62,0.00,CLR,,0.00,WeatherDisplay:10.37,2013-11-12 17:34:00,
2013-11-12 12:39:00,30.3,18.8,30.00,North,0,6.9,6.9,62,0.00,CLR,,0.00,WeatherDisplay:10.37,2013-11-12 17:39:00,
2013-11-12 12:44:00,30.3,18.8,30.00,North,1,8.1,8.1,62,0.00,CLR,,0.00,WeatherDisplay:10.37,2013-11-12 17:44:00,
2013-11-12 12:49:00,30.5,19.0,30.00,East,82,13.8,13.8,62,0.00,CLR,,0.00,WeatherDisplay:10.37,2013-11-12 17:49:00,
2013-11-12 12:54:00,30.3,18.8,30.00,NE,55,12.7,12.7,62,0.00,CLR,,0.00,WeatherDisplay:10.37,2013-11-12 17:54:00,
2013-11-12 12:59:00,30.3,19.2,30.00,NW,313,6.9,6.9,63,0.00,CLR,,0.00,WeatherDisplay:10.37,2013-11-12 17:59:00,
2013-11-12 13:04:00,30.2,18.7,30.00,NNE,27,6.9,6.9,62,0.00,CLR,,0.00,WeatherDisplay:10.37,2013-11-12 18:04:00,
2013-11-12 13:09:00,30.2,19.5,30.00,NNE,28,9.2,9.2,64,0.00,CLR,,0.00,WeatherDisplay:10.37,2013-11-12 18:09:00,
2013-11-12 13:14:00,30.2,18.7,30.01,NW,308,13.8,13.8,62,0.00,CLR,,0.00,WeatherDisplay:10.37,2013-11-12 18:14:00,
2013-11-12 13:19:00,30.0,18.9,30.01,SSE,152,9.2,9.2,63,0.00,CLR,,0.00,WeatherDisplay:10.37,2013-11-12 18:19:00,
2013-11-12 13:24:00,30.0,18.5,30.01,NE,45,8.1,8.1,62,0.00,CLR,,0.00,WeatherDisplay:10.37,2013-11-12 18:24:00,
2013-11-12 13:29:00,30.2,18.4,30.01,NW,308,10.4,10.4,61,0.00,CLR,,0.00,WeatherDisplay:10.37,2013-11-12 18:29:00,
2013-11-12 13:34:00,30.2,18.7,30.01,North,0,10.4,10.4,62,0.00,CLR,,0.00,WeatherDisplay:10.37,2013-11-12 18:34:00,
2013-11-12 13:39:00,30.0,18.2,30.01,NNE,23,12.7,12.7,61,0.00,CLR,,0.00,WeatherDisplay:10.37,2013-11-12 18:39:00,
2013-11-12 13:44:00,30.0,18.2,30.00,ENE,62,2.3,2.5,61,0.00,CLR,,0.00,WeatherDisplay:10.37,2013-11-12 18:44:00,
2013-11-12 13:49:00,30.0,18.2,30.01,ENE,72,8.1,8.1,61,0.00,CLR,,0.00,WeatherDisplay:10.37,2013-11-12 18:49:00,
2013-11-12 13:54:00,30.0,18.2,30.01,North,0,5.8,5.8,61,0.00,CLR,,0.00,WeatherDisplay:10.37,2013-11-12 18:54:00,
2013-11-12 13:59:00,30.0,18.9,30.01,ESE,119,10.4,10.4,63,0.00,CLR,,0.00,WeatherDisplay:10.37,2013-11-12 18:59:00,
2013-11-12 14:04:00,30.2,19.1,30.01,WSW,246,6.9,6.9,63,0.00,CLR,,0.00,WeatherDisplay:10.37,2013-11-12 19:04:00,
2013-11-12 14:09:00,30.2,18.4,30.01,NE,49,10.4,10.4,61,0.00,CLR,,0.00,WeatherDisplay:10.37,2013-11-12 19:09:00,
2013-11-12 14:14:00,30.2,18.4,30.01,East,80,2.3,2.3,61,0.00,CLR,,0.00,WeatherDisplay:10.37,2013-11-12 19:14:00,
2013-11-12 14:19:00,30.2,18.4,30.02,ENE,59,2.3,4.7,61,0.00,CLR,,0.00,WeatherDisplay:10.37,2013-11-12 19:19:00,
2013-11-12 14:24:00,30.2,18.4,30.01,West,278,16.1,16.1,61,0.00,CLR,,0.00,WeatherDisplay:10.37,2013-11-12 19:24:00,
2013-11-12 14:29:00,30.3,18.5,30.02,South,175,5.8,5.8,61,0.00,CLR,,0.00,WeatherDisplay:10.37,2013-11-12 19:29:00,
2013-11-12 14:34:00,30.3,18.5,30.02,ENE,71,6.9,6.9,61,0.00,CLR,,0.00,WeatherDisplay:10.37,2013-11-12 19:34:00,
2013-11-12 14:39:00,30.3,18.8,30.02,North,0,3.5,3.5,62,0.00,CLR,,0.00,WeatherDisplay:10.37,2013-11-12 19:39:00,
2013-11-12 14:44:00,30.5,19.0,30.02,SW,230,5.8,5.8,62,0.00,CLR,,0.00,WeatherDisplay:10.37,2013-11-12 19:44:00,
2013-11-12 14:49:00,30.5,19.4,30.01,NNW,344,3.9,3.9,63,0.00,CLR,,0.00,WeatherDisplay:10.37,2013-11-12 19:49:00,
2013-11-12 14:54:00,30.6,19.1,30.02,NE,34,1.2,1.2,62,0.00,CLR,,0.00,WeatherDisplay:10.37,2013-11-12 19:54:00,
2013-11-12 14:59:00,30.6,19.1,30.02,ESE,103,1.2,1.6,62,0.00,CLR,,0.00,WeatherDisplay:10.37,2013-11-12 19:59:00,
2013-11-12 15:05:00,30.6,19.5,30.02,East,89,3.5,3.5,63,0.00,CLR,,0.00,WeatherDisplay:10.37,2013-11-12 20:05:00,
2013-11-12 15:10:00,30.6,19.5,30.02,NE,55,3.5,3.5,63,0.00,CLR,,0.00,WeatherDisplay:10.37,2013-11-12 20:10:00,
2013-11-12 15:15:00,30.8,19.3,30.03,SSW,209,5.8,5.8,62,0.00,CLR,,0.00,WeatherDisplay:10.37,2013-11-12 20:15:00,
2013-11-12 15:20:00,30.8,19.3,30.03,SSW,205,11.5,11.5,62,0.00,CLR,,0.00,WeatherDisplay:10.37,2013-11-12 20:20:00,
2013-11-12 15:25:00,30.9,19.4,30.03,SSW,199,2.6,2.6,62,0.00,CLR,,0.00,WeatherDisplay:10.37,2013-11-12 20:25:00,
2013-11-12 15:30:00,30.9,19.4,30.03,NW,313,3.5,3.5,62,0.00,CLR,,0.00,WeatherDisplay:10.37,2013-11-12 20:30:00,
2013-11-12 15:35:00,30.9,19.0,30.03,NNW,328,12.7,12.7,61,0.00,CLR,,0.00,WeatherDisplay:10.37,2013-11-12 20:35:00,
2013-11-12 15:40:00,30.9,18.6,30.03,West,274,8.1,8.1,60,0.00,CLR,,0.00,WeatherDisplay:10.37,2013-11-12 20:40:00,
2013-11-12 15:45:00,31.1,18.4,30.03,North,0,6.9,6.9,59,0.00,CLR,,0.00,WeatherDisplay:10.37,2013-11-12 20:45:00,
2013-11-12 15:50:00,31.2,18.5,30.03,North,359,10.4,10.4,59,0.00,CLR,,0.00,WeatherDisplay:10.37,2013-11-12 20:50:00,
2013-11-12 15:55:00,31.2,18.1,30.03,ENE,69,3.5,3.5,58,0.00,CLR,,0.00,WeatherDisplay:10.37,2013-11-12 20:55:00,
2013-11-12 16:00:00,31.1,18.4,30.03,NE,34,8.1,8.1,59,0.00,CLR,,0.00,WeatherDisplay:10.37,2013-11-12 21:00:00,
2013-11-12 16:05:00,31.1,18.4,30.04,WSW,254,1.2,1.3,59,0.00,CLR,,0.00,WeatherDisplay:10.37,2013-11-12 21:05:00,
2013-11-12 16:10:00,30.8,18.5,30.04,NW,318,2.3,2.3,60,0.00,CLR,,0.00,WeatherDisplay:10.37,2013-11-12 21:10:00,
2013-11-12 16:15:00,30.6,18.3,30.04,NNE,27,1.3,2.5,60,0.00,CLR,,0.00,WeatherDisplay:10.37,2013-11-12 21:15:00,
2013-11-12 16:20:00,30.5,18.6,30.05,North,349,2.3,2.3,61,0.00,CLR,,0.00,WeatherDisplay:10.37,2013-11-12 21:20:00,
2013-11-12 16:25:00,30.3,18.1,30.05,NNW,335,0.0,0.2,60,0.00,CLR,,0.00,WeatherDisplay:10.37,2013-11-12 21:25:00,
2013-11-12 16:30:00,30.2,18.4,30.05,NNE,18,6.9,6.9,61,0.00,CLR,,0.00,WeatherDisplay:10.37,2013-11-12 21:30:00,
2013-11-12 16:35:00,29.9,18.5,30.05,North,1,2.3,2.3,62,0.00,CLR,,0.00,WeatherDisplay:10.37,2013-11-12 21:35:00,
2013-11-12 16:40:00,29.7,18.3,30.05,South,179,6.9,6.9,62,0.00,CLR,,0.00,WeatherDisplay:10.37,2013-11-12 21:40:00,
2013-11-12 16:45:00,29.6,18.2,30.05,SE,138,3.5,4.4,62,0.00,CLR,,0.00,WeatherDisplay:10.37,2013-11-12 21:45:00,
2013-11-12 16:50:00,29.4,18.0,30.05,NW,308,9.2,9.2,62,0.00,CLR,,0.00,WeatherDisplay:10.37,2013-11-12 21:50:00,
2013-11-12 16:55:00,29.3,17.9,30.06,East,89,2.3,2.3,62,0.00,CLR,,0.00,WeatherDisplay:10.37,2013-11-12 21:55:00,
2013-11-12 17:00:00,29.0,17.6,30.06,NW,326,6.9,6.9,62,0.00,CLR,,0.00,WeatherDisplay:10.37,2013-11-12 22:00:00,
2013-11-12 17:05:00,29.0,18.0,30.06,East,95,5.2,5.2,63,0.00,CLR,,0.00,WeatherDisplay:10.37,2013-11-12 22:05:00,
2013-11-12 17:10:00,28.8,17.4,30.06,NW,312,9.2,9.2,62,0.00,CLR,,0.00,WeatherDisplay:10.37,2013-11-12 22:10:00,
2013-11-12 17:15:00,28.7,17.7,30.06,NW,306,6.9,6.9,63,0.00,CLR,,0.00,WeatherDisplay:10.37,2013-11-12 22:15:00,
2013-11-12 17:20:00,28.7,18.1,30.07,SSW,196,5.8,5.8,64,0.00,CLR,,0.00,WeatherDisplay:10.37,2013-11-12 22:20:00,
2013-11-12 17:25:00,28.7,17.7,30.07,East,99,9.2,9.2,63,0.00,CLR,,0.00,WeatherDisplay:10.37,2013-11-12 22:25:00,
2013-11-12 17:30:00,28.7,17.3,30.08,NE,47,9.2,9.2,62,0.00,CLR,,0.00,WeatherDisplay:10.37,2013-11-12 22:30:00,
2013-11-12 17:35:00,28.5,17.5,30.08,NE,38,6.9,6.9,63,0.00,CLR,,0.00,WeatherDisplay:10.37,2013-11-12 22:35:00,
2013-11-12 17:40:00,28.5,17.5,30.08,West,280,6.9,6.9,63,0.00,CLR,,0.00,WeatherDisplay:10.37,2013-11-12 22:40:00,
2013-11-12 17:45:00,28.4,17.0,30.08,NE,37,6.9,6.9,62,0.00,CLR,,0.00,WeatherDisplay:10.37,2013-11-12 22:45:00,
2013-11-12 17:50:00,28.4,17.0,30.08,NNW,347,10.4,10.4,62,0.00,CLR,,0.00,WeatherDisplay:10.37,2013-11-12 22:50:00,
2013-11-12 17:55:00,28.4,17.0,30.09,NNE,28,3.5,3.5,62,0.00,CLR,,0.00,WeatherDisplay:10.37,2013-11-12 22:55:00,
2013-11-12 18:00:00,28.2,17.2,30.09,North,354,8.1,8.1,63,0.00,CLR,,0.00,WeatherDisplay:10.37,2013-11-12 23:00:00,
2013-11-12 18:05:00,28.1,17.1,30.09,North,0,17.3,17.3,63,0.00,CLR,,0.00,WeatherDisplay:10.37,2013-11-12 23:05:00,
2013-11-12 18:10:00,28.1,16.7,30.09,North,1,3.5,3.5,62,0.00,CLR,,0.00,WeatherDisplay:10.37,2013-11-12 23:10:00,
2013-11-12 18:15:00,28.1,16.7,30.09,North,11,6.9,6.9,62,0.00,CLR,,0.00,WeatherDisplay:10.37,2013-11-12 23:15:00,
2013-11-12 18:20:00,28.1,17.1,30.09,NE,49,5.8,5.8,63,0.00,CLR,,0.00,WeatherDisplay:10.37,2013-11-12 23:20:00,
2013-11-12 18:25:00,27.9,16.9,30.09,West,281,9.2,9.2,63,0.00,CLR,,0.00,WeatherDisplay:10.37,2013-11-12 23:25:00,
2013-11-12 18:30:00,27.8,17.2,30.09,NE,47,5.2,5.2,64,0.00,CLR,,0.00,WeatherDisplay:10.37,2013-11-12 23:30:00,
2013-11-12 18:35:00,27.7,17.1,30.09,North,0,6.9,6.9,64,0.00,CLR,,0.00,WeatherDisplay:10.37,2013-11-12 23:35:00,
2013-11-12 18:40:00,27.7,17.5,30.09,South,174,3.5,3.5,65,0.00,CLR,,0.00,WeatherDisplay:10.37,2013-11-12 23:40:00,
2013-11-12 18:45:00,27.5,16.9,30.09,SW,230,1.2,1.2,64,0.00,CLR,,0.00,WeatherDisplay:10.37,2013-11-12 23:45:00,
2013-11-12 18:50:00,27.4,17.2,30.09,SW,230,1.2,1.2,65,0.00,CLR,,0.00,WeatherDisplay:10.37,2013-11-12 23:50:00,
2013-11-12 18:55:00,27.2,17.0,30.09,South,191,1.2,1.2,65,0.00,CLR,,0.00,WeatherDisplay:10.37,2013-11-12 23:55:00,
2013-11-12 19:00:00,27.1,16.9,30.09,South,191,2.3,2.3,65,0.00,CLR,,0.00,WeatherDisplay:10.37,2013-11-13 00:00:00,
2013-11-12 19:05:00,26.8,17.0,30.09,SW,233,1.2,1.2,66,0.00,CLR,,0.00,WeatherDisplay:10.37,2013-11-13 00:05:00,
2013-11-12 19:11:00,26.6,17.1,30.09,SE,131,0.0,0.0,67,0.00,CLR,,0.00,WeatherDisplay:10.37,2013-11-13 00:11:00,
2013-11-12 19:16:00,26.6,17.1,30.09,SSE,151,2.3,2.3,67,0.00,CLR,,0.00,WeatherDisplay:10.37,2013-11-13 00:16:00,
2013-11-12 19:21:00,26.6,17.8,30.09,SSE,151,1.2,0.0,69,0.00,CLR,,0.00,WeatherDisplay:10.37,2013-11-13 00:21:00,
2013-11-12 19:26:00,26.3,17.2,30.09,SE,144,1.2,1.2,68,0.00,CLR,,0.00,WeatherDisplay:10.37,2013-11-13 00:26:00,
2013-11-12 19:31:00,26.3,17.2,30.09,SE,144,2.3,2.3,68,0.00,CLR,,0.00,WeatherDisplay:10.37,2013-11-13 00:31:00,
2013-11-12 19:36:00,26.5,17.0,30.09,SE,144,1.3,1.3,67,0.00,CLR,,0.00,WeatherDisplay:10.37,2013-11-13 00:36:00,
2013-11-12 19:41:00,26.6,17.1,30.09,NNE,25,2.3,2.3,67,0.00,CLR,,0.00,WeatherDisplay:10.37,2013-11-13 00:41:00,
2013-11-12 19:46:00,26.5,17.0,30.09,SE,134,3.5,3.5,67,0.00,CLR,,0.00,WeatherDisplay:10.37,2013-11-13 00:46:00,
2013-11-12 19:51:00,26.3,17.2,30.09,South,178,6.9,6.9,68,0.00,CLR,,0.00,WeatherDisplay:10.37,2013-11-13 00:51:00,
2013-11-12 19:56:00,26.3,17.5,30.09,SSE,161,0.0,0.0,69,0.00,CLR,,0.00,WeatherDisplay:10.37,2013-11-13 00:56:00,
2013-11-12 20:01:00,26.3,17.5,30.09,SSE,161,2.3,2.3,69,0.00,FEW,,0.00,WeatherDisplay:10.37,2013-11-13 01:01:00,
2013-11-12 20:06:00,26.3,17.8,30.09,SSE,161,0.0,0.2,70,0.00,FEW,,0.00,WeatherDisplay:10.37,2013-11-13 01:06:00,
2013-11-12 20:11:00,26.2,17.4,30.09,South,176,2.3,2.3,69,0.00,FEW,,0.00,WeatherDisplay:10.37,2013-11-13 01:11:00,
2013-11-12 20:16:00,26.2,17.4,30.09,SSE,168,2.3,2.3,69,0.00,FEW,,0.00,WeatherDisplay:10.37,2013-11-13 01:16:00,
2013-11-12 20:21:00,26.2,18.1,30.08,SSE,168,2.3,2.3,71,0.00,FEW,,0.00,WeatherDisplay:10.37,2013-11-13 01:21:00,
2013-11-12 20:26:00,26.3,17.8,30.09,NE,44,2.3,2.3,70,0.00,FEW,,0.00,WeatherDisplay:10.37,2013-11-13 01:26:00,
2013-11-12 20:31:00,26.3,17.5,30.09,NE,44,1.2,0.0,69,0.00,FEW,,0.00,WeatherDisplay:10.37,2013-11-13 01:31:00,
2013-11-12 20:36:00,26.2,17.7,30.09,NE,44,0.0,0.0,70,0.00,FEW,,0.00,WeatherDisplay:10.37,2013-11-13 01:36:00,
2013-11-12 20:41:00,26.0,17.2,30.09,NE,44,0.0,0.0,69,0.00,FEW,,0.00,WeatherDisplay:10.37,2013-11-13 01:41:00,
2013-11-12 20:46:00,25.9,17.5,30.09,South,172,3.5,3.5,70,0.00,FEW,,0.00,WeatherDisplay:10.37,2013-11-13 01:46:00,
2013-11-12 20:51:00,25.7,17.6,30.09,WSW,251,2.3,2.3,71,0.00,FEW,,0.00,WeatherDisplay:10.37,2013-11-13 01:51:00,
2013-11-12 20:56:00,25.6,17.5,30.09,South,189,1.2,1.2,71,0.00,FEW,,0.00,WeatherDisplay:10.37,2013-11-13 01:56:00,
2013-11-12 21:01:00,25.6,17.5,30.09,SSW,196,5.8,5.8,71,0.00,SCT,,0.00,WeatherDisplay:10.37,2013-11-13 02:01:00,
2013-11-12 21:06:00,25.6,18.1,30.09,SSE,160,3.5,3.5,73,0.00,SCT,,0.00,WeatherDisplay:10.37,2013-11-13 02:06:00,
2013-11-12 21:11:00,25.6,17.8,30.09,SSE,164,5.8,5.8,72,0.00,SCT,,0.00,WeatherDisplay:10.37,2013-11-13 02:11:00,
2013-11-12 21:16:00,25.7,17.9,30.09,SE,133,3.5,3.5,72,0.00,SCT,,0.00,WeatherDisplay:10.37,2013-11-13 02:16:00,
2013-11-12 21:21:00,25.7,17.9,30.09,SW,236,6.9,6.9,72,0.00,SCT,,0.00,WeatherDisplay:10.37,2013-11-13 02:21:00,
2013-11-12 21:26:00,25.9,17.8,30.09,ENE,61,3.5,3.5,71,0.00,SCT,,0.00,WeatherDisplay:10.37,2013-11-13 02:26:00,
2013-11-12 21:31:00,26.0,17.9,30.09,SE,130,8.1,8.1,71,0.00,SCT,,0.00,WeatherDisplay:10.37,2013-11-13 02:31:00,
2013-11-12 21:36:00,25.9,18.1,30.09,SE,145,1.2,1.2,72,0.00,SCT,,0.00,WeatherDisplay:10.37,2013-11-13 02:36:00,
2013-11-12 21:41:00,25.9,18.1,30.09,SSE,160,3.5,3.5,72,0.00,SCT,,0.00,WeatherDisplay:10.37,2013-11-13 02:41:00,
2013-11-12 21:46:00,25.9,18.1,30.09,SSW,202,3.5,3.5,72,0.00,SCT,,0.00,WeatherDisplay:10.37,2013-11-13 02:46:00,
2013-11-12 21:51:00,26.0,18.2,30.09,SSW,212,3.9,3.9,72,0.00,SCT,,0.00,WeatherDisplay:10.37,2013-11-13 02:51:00,
2013-11-12 21:56:00,26.2,18.4,30.09,SSE,147,2.6,2.6,72,0.00,SCT,,0.00,WeatherDisplay:10.37,2013-11-13 02:56:00,
2013-11-12 22:01:00,26.3,18.5,30.09,ENE,65,2.6,2.6,72,0.00,BKN,,0.00,WeatherDisplay:10.37,2013-11-13 03:01:00,
2013-11-12 22:06:00,26.5,18.4,30.09,West,261,8.1,8.1,71,0.00,BKN,,0.00,WeatherDisplay:10.37,2013-11-13 03:06:00,
2013-11-12 22:11:00,26.6,18.1,30.09,SSW,212,1.2,1.9,70,0.00,BKN,,0.00,WeatherDisplay:10.37,2013-11-13 03:11:00,
2013-11-12 22:16:00,26.8,18.0,30.09,SSW,193,2.3,2.3,69,0.00,BKN,,0.00,WeatherDisplay:10.37,2013-11-13 03:16:00,
2013-11-12 22:21:00,26.6,18.1,30.09,SSE,168,2.3,2.3,70,0.00,BKN,,0.00,WeatherDisplay:10.37,2013-11-13 03:21:00,
2013-11-12 22:26:00,26.8,18.3,30.09,SSE,167,2.3,2.3,70,0.00,BKN,,0.00,WeatherDisplay:10.37,2013-11-13 03:26:00,
2013-11-12 22:31:00,26.8,18.3,30.09,West,275,2.3,2.3,70,0.00,BKN,,0.00,WeatherDisplay:10.37,2013-11-13 03:31:00,
2013-11-12 22:36:00,26.8,18.3,30.09,NE,38,2.3,2.3,70,0.00,BKN,,0.00,WeatherDisplay:10.37,2013-11-13 03:36:00,
2013-11-12 22:41:00,26.9,18.1,30.09,WSW,257,6.9,6.9,69,0.00,BKN,,0.00,WeatherDisplay:10.37,2013-11-13 03:41:00,
2013-11-12 22:46:00,26.8,18.3,30.09,NNE,31,0.0,0.1,70,0.00,BKN,,0.00,WeatherDisplay:10.37,2013-11-13 03:46:00,
2013-11-12 22:51:00,26.8,18.3,30.09,ENE,61,1.3,2.0,70,0.00,BKN,,0.00,WeatherDisplay:10.37,2013-11-13 03:51:00,
2013-11-12 22:56:00,26.8,18.0,30.09,North,0,2.3,2.3,69,0.00,BKN,,0.00,WeatherDisplay:10.37,2013-11-13 03:56:00,
2013-11-12 23:01:00,26.9,18.1,30.10,NE,34,5.8,5.8,69,0.00,FEW,,0.00,WeatherDisplay:10.37,2013-11-13 04:01:00,
2013-11-12 23:06:00,26.9,17.7,30.10,ENE,75,2.3,2.3,68,0.00,FEW,,0.00,WeatherDisplay:10.37,2013-11-13 04:06:00,
2013-11-12 23:11:00,26.9,17.7,30.10,SSE,167,0.0,0.0,68,0.00,FEW,,0.00,WeatherDisplay:10.37,2013-11-13 04:11:00,
2013-11-12 23:16:00,26.8,18.0,30.10,SSE,162,2.6,2.6,69,0.00,FEW,,0.00,WeatherDisplay:10.37,2013-11-13 04:16:00,
2013-11-12 23:22:00,26.6,17.8,30.10,South,176,6.5,6.5,69,0.00,FEW,,0.00,WeatherDisplay:10.37,2013-11-13 04:22:00,
2013-11-12 23:27:00,26.6,17.8,30.10,SE,141,3.5,3.5,69,0.00,FEW,,0.00,WeatherDisplay:10.37,2013-11-13 04:27:00,
2013-11-12 23:32:00,26.5,17.7,30.11,SE,140,1.2,0.0,69,0.00,FEW,,0.00,WeatherDisplay:10.37,2013-11-13 04:32:00,
2013-11-12 23:37:00,26.3,17.5,30.10,SSE,150,2.3,2.3,69,0.00,FEW,,0.00,WeatherDisplay:10.37,2013-11-13 04:37:00,
2013-11-12 23:42:00,26.2,17.7,30.10,SSE,150,0.0,0.0,70,0.00,FEW,,0.00,WeatherDisplay:10.37,2013-11-13 04:42:00,
2013-11-12 23:47:00,26.0,17.6,30.10,SSE,150,0.0,0.0,70,0.00,FEW,,0.00,WeatherDisplay:10.37,2013-11-13 04:47:00,
2013-11-12 23:52:00,25.9,17.8,30.10,SSE,150,1.3,1.3,71,0.00,FEW,,0.00,WeatherDisplay:10.37,2013-11-13 04:52:00,
2013-11-12 23:57:00,25.9,17.5,30.10,North,4,0.0,0.0,70,0.00,FEW,,0.00,WeatherDisplay:10.37,2013-11-13 04:57:00,